Time,TemperatureF,DewpointF,PressureIn,WindDirection,WindDirectionDegrees,WindSpeedMPH,WindSpeedGustMPH,Humidity,HourlyPrecipIn,Conditions,Clouds,dailyrainin,SoftwareType,DateUTC
2013-09-30 00:04:00,47.1,41.3,30.26,SE,129,0.0,0.0,80,0.00,NA,NA,-99.99,VWS Version 10.38,2013-09-30 04:04:00,
2013-09-30 00:09:00,47.1,41.6,30.23,SE,129,0.0,0.0,81,0.00,NA,NA,-99.99,VWS Version 10.38,2013-09-30 04:09:00,
2013-09-30 00:14:00,46.9,41.4,30.23,SE,129,0.0,0.0,81,0.00,NA,NA,-99.99,VWS Version 10.38,2013-09-30 04:14:00,
2013-09-30 00:19:00,46.9,41.4,30.23,SE,129,0.0,0.0,81,0.00,NA,NA,-99.99,VWS Version 10.38,2013-09-30 04:19:00,
2013-09-30 00:24:00,46.9,41.4,30.23,SE,129,0.0,0.0,81,0.00,NA,NA,-99.99,VWS Version 10.38,2013-09-30 04:24:00,
2013-09-30 00:29:00,46.8,41.2,30.23,SE,129,0.0,0.0,81,0.00,NA,NA,-99.99,VWS Version 10.38,2013-09-30 04:29:00,
2013-09-30 00:34:00,46.6,41.1,30.23,SE,129,0.0,0.0,81,0.00,NA,NA,-99.99,VWS Version 10.38,2013-09-30 04:34:00,
2013-09-30 00:39:00,46.4,40.9,30.23,SE,129,0.0,0.0,81,0.00,NA,NA,-99.99,VWS Version 10.38,2013-09-30 04:39:00,
2013-09-30 00:49:00,46.4,41.2,30.23,SE,129,0.0,0.0,82,0.00,NA,NA,-99.99,VWS Version 10.38,2013-09-30 04:49:00,
2013-09-30 00:54:00,46.4,41.2,30.23,SE,129,0.0,0.0,82,0.00,NA,NA,-99.99,VWS Version 10.38,2013-09-30 04:54:00,
2013-09-30 00:59:00,46.4,41.2,30.23,SE,129,0.0,0.0,82,0.00,NA,NA,-99.99,VWS Version 10.38,2013-09-30 04:59:00,
2013-09-30 01:09:00,46.4,41.2,30.23,SE,129,0.0,0.0,82,0.00,NA,NA,-99.99,VWS Version 10.38,2013-09-30 05:09:00,
2013-09-30 01:14:00,46.2,41.3,30.23,SE,129,0.0,0.0,83,0.00,NA,NA,-99.99,VWS Version 10.38,2013-09-30 05:14:00,
2013-09-30 01:19:00,46.0,41.2,30.23,SE,129,0.0,0.0,83,0.00,NA,NA,-99.99,VWS Version 10.38,2013-09-30 05:19:00,
2013-09-30 01:24:00,45.9,41.0,30.23,SE,129,0.0,0.0,83,0.00,NA,NA,-99.99,VWS Version 10.38,2013-09-30 05:24:00,
2013-09-30 01:34:00,45.7,40.8,30.23,SE,129,0.0,0.0,83,0.00,NA,NA,-99.99,VWS Version 10.38,2013-09-30 05:34:00,
2013-09-30 01:39:00,45.7,40.8,30.23,SE,129,0.0,0.0,83,0.00,NA,NA,-99.99,VWS Version 10.38,2013-09-30 05:39:00,
2013-09-30 01:44:00,45.9,41.0,30.23,SE,129,0.0,0.0,83,0.00,NA,NA,-99.99,VWS Version 10.38,2013-09-30 05:44:00,
2013-09-30 01:54:00,45.5,40.7,30.23,SE,129,0.0,0.0,83,0.00,NA,NA,-99.99,VWS Version 10.38,2013-09-30 05:54:00,
2013-09-30 01:59:00,45.5,41.0,30.23,SE,129,0.0,0.0,84,0.00,NA,NA,-99.99,VWS Version 10.38,2013-09-30 05:59:00,
2013-09-30 02:04:00,45.5,41.0,30.23,SE,129,0.0,0.0,84,0.00,NA,NA,-99.99,VWS Version 10.38,2013-09-30 06:04:00,
2013-09-30 02:09:00,45.3,40.8,30.23,SE,129,0.0,0.0,84,0.00,NA,NA,-99.99,VWS Version 10.38,2013-09-30 06:09:00,
2013-09-30 02:19:00,45.3,40.8,30.23,SE,129,0.0,0.0,84,0.00,NA,NA,-99.99,VWS Version 10.38,2013-09-30 06:19:00,
2013-09-30 02:24:00,45.3,40.8,30.23,SE,129,0.0,0.0,84,0.00,NA,NA,-99.99,VWS Version 10.38,2013-09-30 06:24:00,
2013-09-30 02:34:00,45.1,40.6,30.23,SE,129,0.0,0.0,84,0.00,NA,NA,-99.99,VWS Version 10.38,2013-09-30 06:34:00,
2013-09-30 02:39:00,45.0,40.4,30.23,SE,129,0.0,0.0,84,0.00,NA,NA,-99.99,VWS Version 10.38,2013-09-30 06:39:00,
2013-09-30 02:49:00,44.8,40.2,30.23,SE,129,0.0,0.0,84,0.00,NA,NA,-99.99,VWS Version 10.38,2013-09-30 06:49:00,
2013-09-30 02:59:00,44.6,40.1,30.23,SE,129,0.0,0.0,84,0.00,NA,NA,-99.99,VWS Version 10.38,2013-09-30 06:59:00,
2013-09-30 03:04:00,44.6,40.4,30.23,SE,129,0.0,0.0,85,0.00,NA,NA,-99.99,VWS Version 10.38,2013-09-30 07:04:00,
2013-09-30 03:09:00,44.6,40.4,30.23,SE,129,0.0,0.0,85,0.00,NA,NA,-99.99,VWS Version 10.38,2013-09-30 07:09:00,
2013-09-30 03:19:00,44.6,40.4,30.23,SE,129,0.0,0.0,85,0.00,NA,NA,-99.99,VWS Version 10.38,2013-09-30 07:19:00,
2013-09-30 03:24:00,44.4,40.2,30.23,SE,129,0.0,0.0,85,0.00,NA,NA,-99.99,VWS Version 10.38,2013-09-30 07:24:00,
2013-09-30 03:29:00,44.2,40.0,30.23,SE,129,0.0,0.0,85,0.00,NA,NA,-99.99,VWS Version 10.38,2013-09-30 07:29:00,
2013-09-30 03:39:00,44.2,40.3,30.23,SE,129,0.0,0.0,86,0.00,NA,NA,-99.99,VWS Version 10.38,2013-09-30 07:39:00,
2013-09-30 03:44:00,44.2,40.3,30.23,SE,129,0.0,0.0,86,0.00,NA,NA,-99.99,VWS Version 10.38,2013-09-30 07:44:00,
2013-09-30 03:49:00,44.1,40.2,30.23,SE,129,0.0,0.0,86,0.00,NA,NA,-99.99,VWS Version 10.38,2013-09-30 07:49:00,
2013-09-30 03:59:00,44.1,40.2,30.23,SE,129,0.0,0.0,86,0.00,NA,NA,-99.99,VWS Version 10.38,2013-09-30 07:59:00,
2013-09-30 04:04:00,44.1,40.2,30.23,SE,129,0.0,0.0,86,0.00,NA,NA,-99.99,VWS Version 10.38,2013-09-30 08:04:00,
2013-09-30 04:09:00,44.1,40.2,30.23,SE,129,0.0,0.0,86,0.00,NA,NA,-99.99,VWS Version 10.38,2013-09-30 08:09:00,
2013-09-30 04:19:00,43.7,39.8,30.23,SE,129,0.0,0.0,86,0.00,NA,NA,-99.99,VWS Version 10.38,2013-09-30 08:19:00,
2013-09-30 04:25:00,43.5,39.6,30.23,SE,129,0.0,0.0,86,0.00,NA,NA,-99.99,VWS Version 10.38,2013-09-30 08:25:00,
2013-09-30 04:35:00,43.2,39.3,30.23,SE,129,0.0,0.0,86,0.00,NA,NA,-99.99,VWS Version 10.38,2013-09-30 08:35:00,
2013-09-30 04:40:00,43.3,39.4,30.23,SE,129,0.0,0.0,86,0.00,NA,NA,-99.99,VWS Version 10.38,2013-09-30 08:40:00,
2013-09-30 04:45:00,43.5,39.9,30.23,SE,129,0.0,0.0,87,0.00,NA,NA,-99.99,VWS Version 10.38,2013-09-30 08:45:00,
2013-09-30 04:50:00,43.5,39.9,30.23,SE,129,0.0,0.0,87,0.00,NA,NA,-99.99,VWS Version 10.38,2013-09-30 08:50:00,
2013-09-30 05:00:00,43.5,39.9,30.23,SE,129,0.0,0.0,87,0.00,NA,NA,-99.99,VWS Version 10.38,2013-09-30 09:00:00,
2013-09-30 05:05:00,43.5,39.9,30.23,SE,129,0.0,0.0,87,0.00,NA,NA,-99.99,VWS Version 10.38,2013-09-30 09:05:00,
2013-09-30 05:10:00,43.5,39.9,30.23,SE,129,0.0,0.0,87,0.00,NA,NA,-99.99,VWS Version 10.38,2013-09-30 09:10:00,
2013-09-30 05:20:00,43.5,39.9,30.23,SE,129,0.0,0.0,87,0.00,NA,NA,-99.99,VWS Version 10.38,2013-09-30 09:20:00,
2013-09-30 05:25:00,43.7,40.1,30.23,SE,129,0.0,0.0,87,0.00,NA,NA,-99.99,VWS Version 10.38,2013-09-30 09:25:00,
2013-09-30 05:30:00,43.7,40.1,30.23,SE,129,0.0,0.0,87,0.00,NA,NA,-99.99,VWS Version 10.38,2013-09-30 09:30:00,
2013-09-30 05:35:00,43.7,40.1,30.23,SE,129,0.0,0.0,87,0.00,NA,NA,-99.99,VWS Version 10.38,2013-09-30 09:35:00,
2013-09-30 05:44:00,43.7,40.1,30.23,SE,129,0.0,0.0,87,0.00,NA,NA,-99.99,VWS Version 10.38,2013-09-30 09:44:00,
2013-09-30 05:49:00,43.5,39.9,30.23,SE,129,0.0,0.0,87,0.00,NA,NA,-99.99,VWS Version 10.38,2013-09-30 09:49:00,
2013-09-30 05:54:00,43.5,39.9,30.23,SE,129,0.0,0.0,87,0.00,NA,NA,-99.99,VWS Version 10.38,2013-09-30 09:54:00,
2013-09-30 06:04:00,43.9,40.6,30.23,SE,129,0.0,0.0,88,0.00,NA,NA,-99.99,VWS Version 10.38,2013-09-30 10:04:00,
2013-09-30 06:09:00,43.9,40.6,30.23,SE,129,0.0,0.0,88,0.00,NA,NA,-99.99,VWS Version 10.38,2013-09-30 10:09:00,
2013-09-30 06:14:00,43.5,40.2,30.23,SE,129,0.0,0.0,88,0.00,NA,NA,-99.99,VWS Version 10.38,2013-09-30 10:14:00,
2013-09-30 06:24:00,43.3,39.7,30.23,SE,129,0.0,0.0,87,0.00,NA,NA,-99.99,VWS Version 10.38,2013-09-30 10:24:00,
2013-09-30 06:29:00,43.3,40.0,30.23,SE,129,0.0,0.0,88,0.00,NA,NA,-99.99,VWS Version 10.38,2013-09-30 10:29:00,
2013-09-30 06:34:00,43.5,40.2,30.23,SE,129,0.0,0.0,88,0.00,NA,NA,-99.99,VWS Version 10.38,2013-09-30 10:34:00,
2013-09-30 06:44:00,43.7,40.4,30.23,SE,129,0.0,0.0,88,0.00,NA,NA,-99.99,VWS Version 10.38,2013-09-30 10:44:00,
2013-09-30 06:49:00,43.7,40.4,30.23,SE,129,0.0,0.0,88,0.00,NA,NA,-99.99,VWS Version 10.38,2013-09-30 10:49:00,
2013-09-30 06:54:00,43.7,40.4,30.23,SE,129,0.0,0.0,88,0.00,NA,NA,-99.99,VWS Version 10.38,2013-09-30 10:54:00,
2013-09-30 07:04:00,43.5,40.2,30.23,SE,129,0.0,0.0,88,0.00,NA,NA,-99.99,VWS Version 10.38,2013-09-30 11:04:00,
2013-09-30 07:09:00,43.5,40.2,30.23,SE,129,0.0,0.0,88,0.00,NA,NA,-99.99,VWS Version 10.38,2013-09-30 11:09:00,
2013-09-30 07:14:00,43.7,40.4,30.23,SE,129,0.0,0.0,88,0.00,NA,NA,-99.99,VWS Version 10.38,2013-09-30 11:14:00,
2013-09-30 07:24:00,43.9,40.8,30.23,SE,129,0.0,0.0,89,0.00,NA,NA,-99.99,VWS Version 10.38,2013-09-30 11:24:00,
2013-09-30 07:29:00,43.9,40.8,30.23,SE,129,0.0,0.0,89,0.00,NA,NA,-99.99,VWS Version 10.38,2013-09-30 11:29:00,
2013-09-30 07:34:00,43.9,40.8,30.23,SE,129,0.0,0.0,89,0.00,NA,NA,-99.99,VWS Version 10.38,2013-09-30 11:34:00,
2013-09-30 07:44:00,44.6,41.6,30.23,SE,129,0.0,0.0,89,0.00,NA,NA,-99.99,VWS Version 10.38,2013-09-30 11:44:00,
2013-09-30 07:49:00,44.8,41.7,30.23,SE,129,0.0,0.0,89,0.00,NA,NA,-99.99,VWS Version 10.38,2013-09-30 11:49:00,
2013-09-30 07:54:00,45.1,42.1,30.23,SE,129,0.0,0.0,89,0.00,NA,NA,-99.99,VWS Version 10.38,2013-09-30 11:54:00,
2013-09-30 08:04:00,45.9,43.1,30.23,SE,129,0.0,0.0,90,0.00,NA,NA,-99.99,VWS Version 10.38,2013-09-30 12:04:00,
2013-09-30 08:09:00,46.2,43.5,30.23,SE,129,0.0,0.0,90,0.00,NA,NA,-99.99,VWS Version 10.38,2013-09-30 12:09:00,
2013-09-30 08:14:00,46.4,43.6,30.23,SE,129,0.0,0.0,90,0.00,NA,NA,-99.99,VWS Version 10.38,2013-09-30 12:14:00,
2013-09-30 08:24:00,46.9,44.2,30.23,SE,129,0.0,0.0,90,0.00,NA,NA,-99.99,VWS Version 10.38,2013-09-30 12:24:00,
2013-09-30 08:29:00,47.3,44.5,30.23,SE,129,0.0,0.0,90,0.00,NA,NA,-99.99,VWS Version 10.38,2013-09-30 12:29:00,
2013-09-30 08:34:00,47.7,45.2,30.23,SE,129,0.0,0.0,91,0.00,NA,NA,-99.99,VWS Version 10.38,2013-09-30 12:34:00,
2013-09-30 08:39:00,48.2,45.4,30.23,SE,129,0.0,0.0,90,0.00,NA,NA,-99.99,VWS Version 10.38,2013-09-30 12:39:00,
2013-09-30 08:49:00,48.9,46.4,30.23,SE,129,0.0,0.0,91,0.00,NA,NA,-99.99,VWS Version 10.38,2013-09-30 12:49:00,
2013-09-30 08:54:00,49.6,47.1,30.23,SE,129,0.0,0.0,91,0.00,NA,NA,-99.99,VWS Version 10.38,2013-09-30 12:54:00,
2013-09-30 08:59:00,50.4,47.8,30.23,SE,129,0.0,0.0,91,0.00,NA,NA,-99.99,VWS Version 10.38,2013-09-30 12:59:00,
2013-09-30 09:09:00,51.6,49.1,30.23,SE,129,0.0,0.0,91,0.00,NA,NA,-99.99,VWS Version 10.38,2013-09-30 13:09:00,
2013-09-30 09:14:00,52.7,50.5,30.23,SE,129,0.0,0.0,92,0.00,NA,NA,-99.99,VWS Version 10.38,2013-09-30 13:14:00,
2013-09-30 09:19:00,54.1,51.9,30.23,SE,129,0.0,0.0,92,0.00,NA,NA,-99.99,VWS Version 10.38,2013-09-30 13:19:00,
2013-09-30 09:29:00,55.9,53.7,30.23,SE,129,0.0,0.0,92,0.00,NA,NA,-99.99,VWS Version 10.38,2013-09-30 13:29:00,
2013-09-30 09:34:00,56.8,54.5,30.23,SE,129,0.0,0.0,92,0.00,NA,NA,-99.99,VWS Version 10.38,2013-09-30 13:34:00,
2013-09-30 09:39:00,57.9,55.6,30.23,SE,129,0.0,0.0,92,0.00,NA,NA,-99.99,VWS Version 10.38,2013-09-30 13:39:00,
2013-09-30 09:44:00,58.1,55.8,30.20,SE,129,0.0,0.0,92,0.00,NA,NA,-99.99,VWS Version 10.38,2013-09-30 13:44:00,
2013-09-30 09:54:00,58.5,55.8,30.20,SE,129,0.0,0.0,91,0.00,NA,NA,-99.99,VWS Version 10.38,2013-09-30 13:54:00,
2013-09-30 09:59:00,58.8,55.9,30.23,SE,129,0.0,0.0,90,0.00,NA,NA,-99.99,VWS Version 10.38,2013-09-30 13:59:00,
2013-09-30 10:04:00,59.2,56.0,30.23,SE,129,0.0,0.0,89,0.00,NA,NA,-99.99,VWS Version 10.38,2013-09-30 14:04:00,
2013-09-30 10:14:00,59.5,54.7,30.23,SE,129,0.0,0.0,84,0.00,NA,NA,-99.99,VWS Version 10.38,2013-09-30 14:14:00,
2013-09-30 10:25:00,61.3,56.5,30.23,SE,129,0.0,0.0,84,0.00,NA,NA,-99.99,VWS Version 10.38,2013-09-30 14:25:00,
2013-09-30 10:30:00,62.1,56.8,30.23,SE,129,0.0,0.0,83,0.00,NA,NA,-99.99,VWS Version 10.38,2013-09-30 14:30:00,
2013-09-30 10:35:00,62.1,55.5,30.23,SE,129,0.0,0.0,79,0.00,NA,NA,-99.99,VWS Version 10.38,2013-09-30 14:35:00,
2013-09-30 10:40:00,61.9,53.5,30.23,SE,129,0.0,0.0,74,0.00,NA,NA,-99.99,VWS Version 10.38,2013-09-30 14:40:00,
2013-09-30 10:45:00,61.7,50.2,30.23,SE,129,0.0,0.0,66,0.00,NA,NA,-99.99,VWS Version 10.38,2013-09-30 14:45:00,
2013-09-30 10:50:00,61.9,50.4,30.23,SE,129,0.0,0.0,66,0.00,NA,NA,-99.99,VWS Version 10.38,2013-09-30 14:50:00,
2013-09-30 10:55:00,62.6,50.3,30.20,SE,129,0.0,0.0,64,0.00,NA,NA,-99.99,VWS Version 10.38,2013-09-30 14:55:00,
2013-09-30 11:00:00,63.1,47.2,30.20,SE,129,0.0,0.0,56,0.00,NA,NA,-99.99,VWS Version 10.38,2013-09-30 15:00:00,
2013-09-30 11:05:00,63.9,47.4,30.20,SE,129,0.0,0.0,55,0.00,NA,NA,-99.99,VWS Version 10.38,2013-09-30 15:05:00,
2013-09-30 11:10:00,64.4,47.9,30.20,SE,129,0.0,0.0,55,0.00,NA,NA,-99.99,VWS Version 10.38,2013-09-30 15:10:00,
2013-09-30 11:15:00,65.1,48.1,30.20,SE,129,0.0,0.0,54,0.00,NA,NA,-99.99,VWS Version 10.38,2013-09-30 15:15:00,
2013-09-30 11:20:00,65.5,46.9,30.20,SE,129,0.0,0.0,51,0.00,NA,NA,-99.99,VWS Version 10.38,2013-09-30 15:20:00,
2013-09-30 11:25:00,65.7,45.5,30.20,SE,129,0.0,0.0,48,0.00,NA,NA,-99.99,VWS Version 10.38,2013-09-30 15:25:00,
2013-09-30 11:30:00,65.8,43.9,30.20,SE,129,0.0,0.0,45,0.00,NA,NA,-99.99,VWS Version 10.38,2013-09-30 15:30:00,
2013-09-30 11:35:00,66.0,44.7,30.20,SE,129,0.0,0.0,46,0.00,NA,NA,-99.99,VWS Version 10.38,2013-09-30 15:35:00,
2013-09-30 11:40:00,66.2,44.2,30.17,SE,129,0.0,0.0,45,0.00,NA,NA,-99.99,VWS Version 10.38,2013-09-30 15:40:00,
2013-09-30 11:45:00,66.4,40.0,30.17,SE,129,0.0,0.0,38,0.00,NA,NA,-99.99,VWS Version 10.38,2013-09-30 15:45:00,
2013-09-30 11:50:00,66.4,39.3,30.17,SE,129,0.0,0.0,37,0.00,NA,NA,-99.99,VWS Version 10.38,2013-09-30 15:50:00,
2013-09-30 11:55:00,66.7,39.7,30.17,SE,129,0.0,0.0,37,0.00,NA,NA,-99.99,VWS Version 10.38,2013-09-30 15:55:00,
2013-09-30 12:00:00,66.9,40.5,30.17,SE,129,0.0,0.0,38,0.00,NA,NA,-99.99,VWS Version 10.38,2013-09-30 16:00:00,
2013-09-30 12:05:00,67.3,41.5,30.17,SE,129,0.0,0.0,39,0.00,NA,NA,-99.99,VWS Version 10.38,2013-09-30 16:05:00,
2013-09-30 12:10:00,67.5,40.3,30.17,SE,138,2.7,2.7,37,0.00,NA,NA,-99.99,VWS Version 10.38,2013-09-30 16:10:00,
2013-09-30 12:15:00,67.5,38.1,30.17,SE,138,2.7,2.7,34,0.00,NA,NA,-99.99,VWS Version 10.38,2013-09-30 16:15:00,
2013-09-30 12:20:00,67.3,38.0,30.17,SE,138,2.7,2.7,34,0.00,NA,NA,-99.99,VWS Version 10.38,2013-09-30 16:20:00,
2013-09-30 12:25:00,67.6,39.0,30.17,SE,138,2.7,2.7,35,0.00,NA,NA,-99.99,VWS Version 10.38,2013-09-30 16:25:00,
2013-09-30 12:30:00,67.8,38.5,30.17,SE,138,2.7,2.7,34,0.00,NA,NA,-99.99,VWS Version 10.38,2013-09-30 16:30:00,
2013-09-30 12:35:00,67.8,38.5,30.17,SE,138,2.7,2.7,34,0.00,NA,NA,-99.99,VWS Version 10.38,2013-09-30 16:35:00,
2013-09-30 12:40:00,68.0,37.8,30.17,SE,138,2.7,2.7,33,0.00,NA,NA,-99.99,VWS Version 10.38,2013-09-30 16:40:00,
2013-09-30 12:45:00,68.0,37.8,30.17,SE,138,2.7,2.7,33,0.00,NA,NA,-99.99,VWS Version 10.38,2013-09-30 16:45:00,
2013-09-30 12:50:00,68.4,36.6,30.17,SE,138,2.7,2.7,31,0.00,NA,NA,-99.99,VWS Version 10.38,2013-09-30 16:50:00,
2013-09-30 12:55:00,68.7,37.7,30.17,SE,138,2.7,2.7,32,0.00,NA,NA,-99.99,VWS Version 10.38,2013-09-30 16:55:00,
2013-09-30 13:00:00,69.3,38.2,30.17,SE,138,2.7,2.7,32,0.00,NA,NA,-99.99,VWS Version 10.38,2013-09-30 17:00:00,
2013-09-30 13:10:00,69.4,37.5,30.17,SE,138,2.7,2.7,31,0.00,NA,NA,-99.99,VWS Version 10.38,2013-09-30 17:10:00,
2013-09-30 13:15:00,69.8,37.0,30.17,WNW,284,4.0,4.0,30,0.00,NA,NA,-99.99,VWS Version 10.38,2013-09-30 17:15:00,
2013-09-30 13:20:00,69.8,36.1,30.17,SSW,199,0.0,0.0,29,0.00,NA,NA,-99.99,VWS Version 10.38,2013-09-30 17:20:00,
2013-09-30 13:30:00,70.0,38.8,30.14,SW,222,2.7,2.7,32,0.00,NA,NA,-99.99,VWS Version 10.38,2013-09-30 17:30:00,
2013-09-30 13:35:00,70.2,38.1,30.14,SW,222,2.7,2.7,31,0.00,NA,NA,-99.99,VWS Version 10.38,2013-09-30 17:35:00,
2013-09-30 13:40:00,70.0,38.0,30.14,NE,46,0.0,0.0,31,0.00,NA,NA,-99.99,VWS Version 10.38,2013-09-30 17:40:00,
2013-09-30 13:45:00,69.8,38.6,30.14,NE,46,0.0,0.0,32,0.00,NA,NA,-99.99,VWS Version 10.38,2013-09-30 17:45:00,
2013-09-30 13:55:00,71.2,39.9,30.14,NE,46,0.0,0.0,32,0.00,NA,NA,-99.99,VWS Version 10.38,2013-09-30 17:55:00,
2013-09-30 14:00:00,71.4,39.2,30.14,NE,46,0.0,0.0,31,0.00,NA,NA,-99.99,VWS Version 10.38,2013-09-30 18:00:00,
2013-09-30 14:05:00,71.6,39.4,30.14,NE,46,0.0,0.0,31,0.00,NA,NA,-99.99,VWS Version 10.38,2013-09-30 18:05:00,
2013-09-30 14:10:00,71.6,39.4,30.14,West,273,2.2,2.2,31,0.00,NA,NA,-99.99,VWS Version 10.38,2013-09-30 18:10:00,
2013-09-30 14:19:00,70.5,35.0,30.14,SE,142,4.0,4.0,27,0.00,NA,NA,-99.99,VWS Version 10.38,2013-09-30 18:19:00,
2013-09-30 14:24:00,69.8,34.3,30.14,WSW,239,0.0,0.0,27,0.00,NA,NA,-99.99,VWS Version 10.38,2013-09-30 18:24:00,
2013-09-30 14:34:00,69.4,38.3,30.14,WSW,239,0.0,0.0,32,0.00,NA,NA,-99.99,VWS Version 10.38,2013-09-30 18:34:00,
2013-09-30 14:39:00,70.5,39.3,30.14,WSW,239,0.0,0.0,32,0.00,NA,NA,-99.99,VWS Version 10.38,2013-09-30 18:39:00,
2013-09-30 14:44:00,71.2,36.5,30.14,WSW,239,0.0,0.0,28,0.00,NA,NA,-99.99,VWS Version 10.38,2013-09-30 18:44:00,
2013-09-30 14:54:00,72.0,34.2,30.14,WSW,239,0.0,0.0,25,0.00,NA,NA,-99.99,VWS Version 10.38,2013-09-30 18:54:00,
2013-09-30 14:59:00,72.0,34.2,30.14,ESE,102,3.1,3.1,25,0.00,NA,NA,-99.99,VWS Version 10.38,2013-09-30 18:59:00,
2013-09-30 15:04:00,72.1,34.4,30.14,ESE,102,3.1,3.1,25,0.00,NA,NA,-99.99,VWS Version 10.38,2013-09-30 19:04:00,
2013-09-30 15:14:00,72.0,34.2,30.14,ESE,102,3.1,3.1,25,0.00,NA,NA,-99.99,VWS Version 10.38,2013-09-30 19:14:00,
2013-09-30 15:19:00,72.1,35.4,30.14,WSW,243,2.2,2.2,26,0.00,NA,NA,-99.99,VWS Version 10.38,2013-09-30 19:19:00,
2013-09-30 15:24:00,72.3,33.5,30.11,NE,56,3.1,3.1,24,0.00,NA,NA,-99.99,VWS Version 10.38,2013-09-30 19:24:00,
2013-09-30 15:34:00,72.0,34.2,30.11,NE,56,3.1,3.1,25,0.00,NA,NA,-99.99,VWS Version 10.38,2013-09-30 19:34:00,
2013-09-30 15:39:00,71.8,33.1,30.11,WNW,287,3.1,3.1,24,0.00,NA,NA,-99.99,VWS Version 10.38,2013-09-30 19:39:00,
2013-09-30 15:44:00,71.8,33.1,30.11,NW,309,4.0,4.0,24,0.00,NA,NA,-99.99,VWS Version 10.38,2013-09-30 19:44:00,
2013-09-30 15:54:00,72.1,34.4,30.11,SW,236,0.0,0.0,25,0.00,NA,NA,-99.99,VWS Version 10.38,2013-09-30 19:54:00,
2013-09-30 15:59:00,72.3,34.6,30.11,SW,236,0.0,0.0,25,0.00,NA,NA,-99.99,VWS Version 10.38,2013-09-30 19:59:00,
2013-09-30 16:04:00,72.0,33.2,30.11,SW,236,0.0,0.0,24,0.00,NA,NA,-99.99,VWS Version 10.38,2013-09-30 20:04:00,
2013-09-30 16:14:00,71.8,34.1,30.11,SW,236,0.0,0.0,25,0.00,NA,NA,-99.99,VWS Version 10.38,2013-09-30 20:14:00,
2013-09-30 16:19:00,71.8,34.1,30.11,SW,236,0.0,0.0,25,0.00,NA,NA,-99.99,VWS Version 10.38,2013-09-30 20:19:00,
2013-09-30 16:24:00,71.6,34.0,30.11,SW,236,0.0,0.0,25,0.00,NA,NA,-99.99,VWS Version 10.38,2013-09-30 20:24:00,
2013-09-30 16:29:00,71.6,34.9,30.11,SW,236,0.0,0.0,26,0.00,NA,NA,-99.99,VWS Version 10.38,2013-09-30 20:29:00,
2013-09-30 16:39:00,71.2,33.6,30.11,SW,236,0.0,0.0,25,0.00,NA,NA,-99.99,VWS Version 10.38,2013-09-30 20:39:00,
2013-09-30 16:44:00,71.2,33.6,30.11,SW,236,0.0,0.0,25,0.00,NA,NA,-99.99,VWS Version 10.38,2013-09-30 20:44:00,
2013-09-30 16:49:00,71.1,33.5,30.11,SW,236,0.0,0.0,25,0.00,NA,NA,-99.99,VWS Version 10.38,2013-09-30 20:49:00,
2013-09-30 16:59:00,70.5,35.0,30.11,West,261,0.0,0.0,27,0.00,NA,NA,-99.99,VWS Version 10.38,2013-09-30 20:59:00,
2013-09-30 17:04:00,70.3,34.8,30.11,West,261,0.0,0.0,27,0.00,NA,NA,-99.99,VWS Version 10.38,2013-09-30 21:04:00,
2013-09-30 17:09:00,69.8,37.0,30.11,West,261,0.0,0.0,30,0.00,NA,NA,-99.99,VWS Version 10.38,2013-09-30 21:09:00,
2013-09-30 17:19:00,68.5,38.3,30.11,West,261,0.0,0.0,33,0.00,NA,NA,-99.99,VWS Version 10.38,2013-09-30 21:19:00,
2013-09-30 17:24:00,68.5,38.3,30.11,West,261,0.0,0.0,33,0.00,NA,NA,-99.99,VWS Version 10.38,2013-09-30 21:24:00,
2013-09-30 17:29:00,68.5,38.3,30.11,West,261,0.0,0.0,33,0.00,NA,NA,-99.99,VWS Version 10.38,2013-09-30 21:29:00,
2013-09-30 17:34:00,65.8,41.5,30.11,West,261,0.0,0.0,41,0.00,NA,NA,-99.99,VWS Version 10.38,2013-09-30 21:34:00,
2013-09-30 17:44:00,64.6,40.4,30.11,West,261,0.0,0.0,41,0.00,NA,NA,-99.99,VWS Version 10.38,2013-09-30 21:44:00,
2013-09-30 17:49:00,63.3,41.1,30.11,West,261,0.0,0.0,44,0.00,NA,NA,-99.99,VWS Version 10.38,2013-09-30 21:49:00,
2013-09-30 17:54:00,62.8,41.2,30.11,West,261,0.0,0.0,45,0.00,NA,NA,-99.99,VWS Version 10.38,2013-09-30 21:54:00,
2013-09-30 18:04:00,62.2,41.2,30.11,West,261,0.0,0.0,46,0.00,NA,NA,-99.99,VWS Version 10.38,2013-09-30 22:04:00,
2013-09-30 18:09:00,61.3,41.5,30.11,West,261,0.0,0.0,48,0.00,NA,NA,-99.99,VWS Version 10.38,2013-09-30 22:09:00,
2013-09-30 18:14:00,60.4,42.2,30.11,West,261,0.0,0.0,51,0.00,NA,NA,-99.99,VWS Version 10.38,2013-09-30 22:14:00,
2013-09-30 18:25:00,59.4,44.1,30.11,West,261,0.0,0.0,57,0.00,NA,NA,-99.99,VWS Version 10.38,2013-09-30 22:25:00,
2013-09-30 18:30:00,59.4,44.1,30.11,West,261,0.0,0.0,57,0.00,NA,NA,-99.99,VWS Version 10.38,2013-09-30 22:30:00,
2013-09-30 18:35:00,59.4,44.1,30.11,West,261,0.0,0.0,57,0.00,NA,NA,-99.99,VWS Version 10.38,2013-09-30 22:35:00,
2013-09-30 18:40:00,57.9,43.7,30.11,West,261,0.0,0.0,59,0.00,NA,NA,-99.99,VWS Version 10.38,2013-09-30 22:40:00,
2013-09-30 18:50:00,57.2,43.9,30.11,West,272,0.0,0.0,61,0.00,NA,NA,-99.99,VWS Version 10.38,2013-09-30 22:50:00,
2013-09-30 18:55:00,57.2,43.9,30.11,West,272,0.0,0.0,61,0.00,NA,NA,-99.99,VWS Version 10.38,2013-09-30 22:55:00,
2013-09-30 19:00:00,57.2,43.9,30.11,West,272,0.0,0.0,61,0.00,NA,NA,-99.99,VWS Version 10.38,2013-09-30 23:00:00,
2013-09-30 19:10:00,57.2,43.9,30.11,West,272,0.0,0.0,61,0.00,NA,NA,-99.99,VWS Version 10.38,2013-09-30 23:10:00,
2013-09-30 19:15:00,57.2,43.9,30.11,West,272,0.0,0.0,61,0.00,NA,NA,-99.99,VWS Version 10.38,2013-09-30 23:15:00,
2013-09-30 19:20:00,57.2,43.9,30.11,West,272,0.0,0.0,61,0.00,NA,NA,-99.99,VWS Version 10.38,2013-09-30 23:20:00,
2013-09-30 19:29:00,57.2,43.9,30.11,West,272,0.0,0.0,61,0.00,NA,NA,-99.99,VWS Version 10.38,2013-09-30 23:29:00,
2013-09-30 19:34:00,57.2,43.9,30.11,West,272,0.0,0.0,61,0.00,NA,NA,-99.99,VWS Version 10.38,2013-09-30 23:34:00,
2013-09-30 19:39:00,57.2,43.9,30.11,West,272,0.0,0.0,61,0.00,NA,NA,-99.99,VWS Version 10.38,2013-09-30 23:39:00,
2013-09-30 19:49:00,57.2,43.9,30.11,West,272,0.0,0.0,61,0.00,NA,NA,-99.99,VWS Version 10.38,2013-09-30 23:49:00,
2013-09-30 19:54:00,57.2,43.9,30.11,West,272,0.0,0.0,61,0.00,NA,NA,-99.99,VWS Version 10.38,2013-09-30 23:54:00,
2013-09-30 19:59:00,57.2,43.9,30.11,West,272,0.0,0.0,61,0.00,NA,NA,-99.99,VWS Version 10.38,2013-09-30 23:59:00,
2013-09-30 20:09:00,53.2,44.1,30.11,SW,215,0.0,0.0,71,0.00,NA,NA,-99.99,VWS Version 10.38,2013-10-01 00:09:00,
2013-09-30 20:14:00,53.2,44.5,30.11,SW,215,0.0,0.0,72,0.00,NA,NA,-99.99,VWS Version 10.38,2013-10-01 00:14:00,
2013-09-30 20:19:00,53.1,44.3,30.11,SW,215,0.0,0.0,72,0.00,NA,NA,-99.99,VWS Version 10.38,2013-10-01 00:19:00,
2013-09-30 20:24:00,52.9,44.1,30.11,SW,215,0.0,0.0,72,0.00,NA,NA,-99.99,VWS Version 10.38,2013-10-01 00:24:00,
2013-09-30 20:29:00,52.9,44.1,30.11,SW,215,0.0,0.0,72,0.00,NA,NA,-99.99,VWS Version 10.38,2013-10-01 00:29:00,
2013-09-30 20:34:00,52.7,43.9,30.11,SW,215,0.0,0.0,72,0.00,NA,NA,-99.99,VWS Version 10.38,2013-10-01 00:34:00,
2013-09-30 20:39:00,52.5,44.1,30.11,SW,215,0.0,0.0,73,0.00,NA,NA,-99.99,VWS Version 10.38,2013-10-01 00:39:00,
2013-09-30 20:44:00,52.3,44.0,30.11,SW,215,0.0,0.0,73,0.00,NA,NA,-99.99,VWS Version 10.38,2013-10-01 00:44:00,
2013-09-30 20:54:00,52.2,43.8,30.11,SW,215,0.0,0.0,73,0.00,NA,NA,-99.99,VWS Version 10.38,2013-10-01 00:54:00,
2013-09-30 20:59:00,52.0,44.0,30.11,SW,215,0.0,0.0,74,0.00,NA,NA,-99.99,VWS Version 10.38,2013-10-01 00:59:00,
2013-09-30 21:04:00,52.0,44.0,30.11,SW,215,0.0,0.0,74,0.00,NA,NA,-99.99,VWS Version 10.38,2013-10-01 01:04:00,
2013-09-30 21:09:00,51.8,43.8,30.11,SW,215,0.0,0.0,74,0.00,NA,NA,-99.99,VWS Version 10.38,2013-10-01 01:09:00,
2013-09-30 21:14:00,51.6,43.6,30.11,SW,215,0.0,0.0,74,0.00,NA,NA,-99.99,VWS Version 10.38,2013-10-01 01:14:00,
2013-09-30 21:19:00,51.4,43.8,30.11,SW,215,0.0,0.0,75,0.00,NA,NA,-99.99,VWS Version 10.38,2013-10-01 01:19:00,
2013-09-30 21:24:00,51.4,43.8,30.11,SW,215,0.0,0.0,75,0.00,NA,NA,-99.99,VWS Version 10.38,2013-10-01 01:24:00,
2013-09-30 21:29:00,51.4,43.8,30.11,SW,215,0.0,0.0,75,0.00,NA,NA,-99.99,VWS Version 10.38,2013-10-01 01:29:00,
2013-09-30 21:34:00,51.3,43.6,30.11,SW,215,0.0,0.0,75,0.00,NA,NA,-99.99,VWS Version 10.38,2013-10-01 01:34:00,
2013-09-30 21:39:00,51.3,43.6,30.11,SW,215,0.0,0.0,75,0.00,NA,NA,-99.99,VWS Version 10.38,2013-10-01 01:39:00,
2013-09-30 21:44:00,51.3,44.0,30.11,SW,215,0.0,0.0,76,0.00,NA,NA,-99.99,VWS Version 10.38,2013-10-01 01:44:00,
2013-09-30 21:49:00,51.3,44.0,30.11,SW,215,0.0,0.0,76,0.00,NA,NA,-99.99,VWS Version 10.38,2013-10-01 01:49:00,
2013-09-30 21:54:00,51.3,44.0,30.11,SW,215,0.0,0.0,76,0.00,NA,NA,-99.99,VWS Version 10.38,2013-10-01 01:54:00,
2013-09-30 21:59:00,51.3,44.0,30.11,SW,215,0.0,0.0,76,0.00,NA,NA,-99.99,VWS Version 10.38,2013-10-01 01:59:00,
2013-09-30 22:04:00,51.1,44.1,30.11,SW,215,0.0,0.0,77,0.00,NA,NA,-99.99,VWS Version 10.38,2013-10-01 02:04:00,
2013-09-30 22:09:00,51.1,44.1,30.11,SW,215,0.0,0.0,77,0.00,NA,NA,-99.99,VWS Version 10.38,2013-10-01 02:09:00,
2013-09-30 22:14:00,51.1,44.1,30.11,SW,215,0.0,0.0,77,0.00,NA,NA,-99.99,VWS Version 10.38,2013-10-01 02:14:00,
2013-09-30 22:19:00,50.9,44.0,30.11,SW,215,0.0,0.0,77,0.00,NA,NA,-99.99,VWS Version 10.38,2013-10-01 02:19:00,
2013-09-30 22:24:00,50.7,43.8,30.11,SW,215,0.0,0.0,77,0.00,NA,NA,-99.99,VWS Version 10.38,2013-10-01 02:24:00,
2013-09-30 22:29:00,50.5,44.0,30.11,SW,215,0.0,0.0,78,0.00,NA,NA,-99.99,VWS Version 10.38,2013-10-01 02:29:00,
2013-09-30 22:34:00,50.5,44.0,30.11,SW,215,0.0,0.0,78,0.00,NA,NA,-99.99,VWS Version 10.38,2013-10-01 02:34:00,
2013-09-30 22:39:00,50.4,43.8,30.11,SW,215,0.0,0.0,78,0.00,NA,NA,-99.99,VWS Version 10.38,2013-10-01 02:39:00,
2013-09-30 22:44:00,50.2,43.6,30.11,SW,215,0.0,0.0,78,0.00,NA,NA,-99.99,VWS Version 10.38,2013-10-01 02:44:00,
2013-09-30 22:54:00,50.0,43.8,30.11,SW,215,0.0,0.0,79,0.00,NA,NA,-99.99,VWS Version 10.38,2013-10-01 02:54:00,
2013-09-30 22:59:00,50.0,43.8,30.11,SW,215,0.0,0.0,79,0.00,NA,NA,-99.99,VWS Version 10.38,2013-10-01 02:59:00,
2013-09-30 23:09:00,50.0,44.1,30.11,SW,215,0.0,0.0,80,0.00,NA,NA,-99.99,VWS Version 10.38,2013-10-01 03:09:00,
2013-09-30 23:14:00,49.8,43.9,30.11,SW,215,0.0,0.0,80,0.00,NA,NA,-99.99,VWS Version 10.38,2013-10-01 03:14:00,
2013-09-30 23:19:00,50.0,44.1,30.11,SW,215,0.0,0.0,80,0.00,NA,NA,-99.99,VWS Version 10.38,2013-10-01 03:19:00,
2013-09-30 23:24:00,49.8,43.9,30.11,SW,215,0.0,0.0,80,0.00,NA,NA,-99.99,VWS Version 10.38,2013-10-01 03:24:00,
2013-09-30 23:29:00,49.6,43.7,30.11,SW,215,0.0,0.0,80,0.00,NA,NA,-99.99,VWS Version 10.38,2013-10-01 03:29:00,
2013-09-30 23:39:00,49.5,43.9,30.11,SW,215,0.0,0.0,81,0.00,NA,NA,-99.99,VWS Version 10.38,2013-10-01 03:39:00,
2013-09-30 23:44:00,49.3,43.7,30.11,SW,215,0.0,0.0,81,0.00,NA,NA,-99.99,VWS Version 10.38,2013-10-01 03:44:00,
2013-09-30 23:49:00,49.3,43.7,30.11,SW,215,0.0,0.0,81,0.00,NA,NA,-99.99,VWS Version 10.38,2013-10-01 03:49:00,
2013-09-30 23:54:00,49.1,43.5,30.11,SW,215,0.0,0.0,81,0.00,NA,NA,-99.99,VWS Version 10.38,2013-10-01 03:54:00,
2013-09-30 23:59:00,49.1,43.5,30.11,SW,215,0.0,0.0,81,0.00,NA,NA,-99.99,VWS Version 10.38,2013-10-01 03:59:00,